Location: *
(45.5667°S, 177.5167°W)
Time: 16:15:28
(UTC+00:00)

USA 215 - Pass Details

Date: 29 May 2022
Orbit: 1099 x 1108 km, 123.0° (Epoch: 10 June)

Event Time Altitude Azimuth Distance (km) Brightness Sun altitude
Exits shadow 05:53:44 - 58° (ENE) 3,051 5.2 -16.3°
Reaches altitude 10° 05:53:56 10° 59° (ENE) 2,980 5.1 -16.3°
Maximum altitude 06:00:32 82° 145° (SE) 1,133 3.2 -17.5°
Drops below altitude 10° 06:07:10 10° 231° (SW) 2,996 6.1 -18.6°
Sets 06:09:40 0° 231° (SW) 3,956 6.8 -19.0°
